Location: Eschertshofen
(49.3064°N, 11.5756°E)
Time: 03:55:11
(UTC+00:00)

ATLAS 3B R/B - Pass Details

Date: 18 September 2020
Orbit: 1016 x 1179 km, 63.8° (Epoch: 04 October)

Event Time Altitude Azimuth Distance (km) Brightness Sun altitude
Rises 21:21:58 0° 317° (NW) 3,834 6.6 -34.4°
Reaches altitude 10° 21:24:35 10° 314° (NW) 2,897 5.7 -34.6°
Enters shadow 21:30:03 52° 277° (W) 1,331 3.2 -35.1°
